Location: Dappach
(48.9767°N, 9.6998°E)
Time: 22:35:50
(UTC+00:00)

Genesis I - Pass Details

Date: 13 August 2024
Orbit: 412 x 456 km, 64.5° (Epoch: 12 September)

Event Time Altitude Azimuth Distance (km) Brightness Sun altitude
Exits shadow 03:07:42 12° 259° (WSW) 1,426 4.9 -9.9°
Maximum altitude 03:10:27 31° 320° (NW) 822 4.2 -9.5°
Drops below altitude 10° 03:13:40 10° 24° (NNE) 1,602 6.7 -9.1°
Sets 03:15:59 0° 35° (NE) 2,491 8.2 -8.8°
